Tracking 19920 objects as of 13-Oct-2019
HD Live streaming from Space Station
objects crossing your sky now

ZHUHAI-1 03C

Track ZHUHAI-1 03C now!
10-day predictions


NORAD ID: 44537
Int'l Code: 2019-060D
Perigee: 513.3 km
Apogee: 526.5 km
Inclination: 97.4 °
Period: 94.9 minutes
Semi major axis: 6890 km
RCS: Unknown
Launch date: September 19, 2019
Source: People's Republic of China (PRC)
Launch site: Jiuquan Satellite Launch Center, China (JSC)
aabbcc
Your satellite tracking list
Your tracking list is empty




NASA's NSSDC Master Catalog

Two Line Element Set (TLE):
1 44537U 19060D   19286.43362128  .00000929  00000-0  49324-4 0  9990
2 44537  97.3981  36.5715 0009553 237.5271 186.5235 15.17705605  3671
Source of the keplerian elements: AFSPC